Tracking 31027 objects as of 19-Jul-2025
HD Live streaming from Space Station
objects crossing your sky now

THOR BURNER 2A DEB

Track THOR BURNER 2A DEB now!
10-day predictions


NORAD ID: 28591
Int'l Code: 1974-015C
Perigee: 791.8 km
Apogee: 858.6 km
Inclination: 99.0 °
Period: 101.3 minutes
Semi major axis: 7196 km
RCS: 0.1381 m2 (medium)
Launch date: March 16, 1974
Source: United States (US)
Launch site: AIR FORCE WESTERN TEST RANGE (AFWTR)

Note: This is SATELLITE DEBRIS
Your satellite tracking list
STARLINK-31611
Track 1 satellite(s)




NASA's NSSDC Master Catalog

Two Line Element Set (TLE):
1 28591U 74015C   25199.47723442  .00000151  00000-0  87859-4 0  9999
2 28591  98.9722  98.0653 0046409 357.8885 183.2062 14.22171302 62397
Source of the keplerian elements: AFSPC